Regional Weather Roundup
Issued by NWS Wakefield, VA

Home | Current Version | Previous Version | Graphics & Text | Print | Product List | Glossary On
Versions: 1 2 3 4 5 6 7 8 9 10 11 12 13 14 15 16 17 18 19 20 21 22 23 24 25 26 27
000
ASUS41 KAKQ 181210
RWRAKQ

REGIONAL WEATHER ROUNDUP
NATIONAL WEATHER SERVICE WAKEFIELD VA
800 AM EDT FRI APR 18 2014

Note: "fair" indicates few or no clouds below 12,000 feet with no
significant weather and/or obstructions to visibility. * = Denotes
station may not report precipitation (e.g., rain,snow,etc.),
thunder or fog.

VAZ042-051-052>054-056-181300-
NORTHERN VIRGINIA

CITY           SKY/WX    TMP DP  RH WIND       PRES   REMARKS
WASH NATIONAL  CLOUDY    41  31  67 E7        30.51S
DULLES         PTSUNNY   37  31  78 E3        30.50R
FORT BELVOIR   PTSUNNY   39  31  75 VRB1      30.51S
QUANTICO       CLOUDY    40  32  73 E9        30.51S
FREDERICKSBRG* MOSUNNY   39  36  87 NE3       30.50S
STAFFORD*      MOSUNNY   38  38 100 CALM      30.53S
WARRENTON      MOSUNNY   37  37 100 NE3       30.49R
CULPEPER*      CLOUDY    39  37  93 CALM      30.50S
MANASSAS*      PTSUNNY   36  36 100 CALM      30.50S
LEESBURG*      MOSUNNY   37  36  93 NE3       30.51R
WINCHESTER     PTSUNNY   36  32  87 NE3       30.46S
$$

VAZ048-049-060>072-079>083-181300-
CENTRAL AND SOUTH CENTRAL VIRGINIA...AND NORTH CENTRAL NORTH CAROLINA

CITY           SKY/WX    TMP DP  RH WIND       PRES   REMARKS
RICHMOND       CLOUDY    39  33  79 NE7       30.50R
CHESTERFIELD*  NOT AVBL
HANOVER        PTSUNNY   36  34  92 CALM      30.51R
TAPPAHANNOCK*  CLOUDY    40  31  69 NE8       30.49S
CHARLOTTSVILLE CLOUDY    39  34  82 CALM      30.47R
ORANGE*        PTSUNNY   34  34 100 CALM      30.49S
LOUISA*        PTSUNNY   36  34  93 CALM      30.47R
FARMVILLE*     PTSUNNY   37  36  93 N3        30.46S
SOUTH HILL*    PTSUNNY   37  37 100 N7        30.51S
ROANOKE RAPIDS PTSUNNY   41  37  87 N8        30.45S
RALEIGH        PTSUNNY   41  36  82 NE6       30.44R
$$

VAZ088>098-181300-
SOUTHEAST VIRGINIA

CITY           SKY/WX    TMP DP  RH WIND       PRES   REMARKS
NORFOLK        CLOUDY    43  36  76 NE15      30.46R
VIRGINIA BEACH CLOUDY    45  38  76 NE12      30.45S
NORFOLK NAVAL  CLOUDY    44  36  73 NE15      30.48R
WEST POINT*    CLOUDY    44  34  68 CALM      30.50S
NEWPORT NEWS   CLOUDY    46  36  68 NE10      30.48R
LANGLEY AFB    CLOUDY    44  38  80 NE13      30.48R
FORT EUSTIS    CLOUDY    44  37  77 NE9       30.46R
WILLIAMSBURG*    N/A     45  37  76 NE5       30.49R
FRANKLIN*      CLOUDY    45  37  76 NE6       30.46S
WAKEFIELD      CLOUDY    42  35  76 NE5       30.47R
$$

VAZ020-022-025-037-045-181300-
WESTERN AND SOUTHWEST VIRGINIA

CITY           SKY/WX    TMP DP  RH WIND       PRES   REMARKS
STAUNTON*      CLOUDY    35  32  90 CALM      30.45R
HOT SPRINGS VA CLOUDY    36  28  75 SW7       30.40R
LYNCHBURG      CLOUDY    42  35  76 NE3       30.46F
DANVILLE       CLOUDY    41  36  82 NE8       30.46S
MARTINSVILLE   CLOUDY    40  37  88 NE6       30.47S
ROANOKE        CLOUDY    40  34  79 E5        30.46S
BLACKSBURG     CLOUDY    37  37 100 CALM      30.43S
DUBLIN*        CLOUDY    35  32  90 CALM      30.43R
MARION*        CLOUDY    38  27  65 SE3       30.41R
HILLSVILLE*    CLOUDY    37  30  75 CALM      30.41F
RICHLANDS*     CLOUDY    48  12  22 CALM      30.36R
WISE*          CLOUDY    48  21  34 S5        30.36S
ABINGDON*      CLOUDY    46  26  44 NE3       30.36R
$$

MDZ021>025-VAZ099-100-181300-
SOUTHERN MARYLAND AND THE DELMARVA PENINSULA

CITY           SKY/WX    TMP DP  RH WIND       PRES   REMARKS
PATUXENT RIVER CLOUDY    41  32  70 NE9       30.49S
BAY BRIDGE APT NOT AVBL
LEONARDTOWN    CLOUDY    41  32  70 NE6       30.50S
DOVER          CLOUDY    40  34  79 NE8       30.48F
GEORGETOWN     CLOUDY    43  33  68 NE12      30.51F
EASTON         CLOUDY    41  36  81 E7        30.54F
CAMBRIDGE      CLOUDY    43  32  65 NE6       30.49F
SALISBURY      CLOUDY    43  34  70 NE10      30.49F
OCEAN CITY     CLOUDY    43  34  70 NE12G18   30.49F
WALLOPS ISLAND CLOUDY    43  36  76 NE9       30.48F
ACCOMACK*      CLOUDY    41  32  70 N7        30.47S
$$

NCZ012>017-030>032-181300-
EASTERN NORTH CAROLINA

CITY           SKY/WX    TMP DP  RH WIND       PRES   REMARKS
ELIZABETH CITY CLOUDY    45  39  79 NE14      30.43F
AHOSKIE*       PTSUNNY   41  37  84 N8        30.44S
EDENTON*       CLOUDY    44  40  87 NE5       30.44R
CURRITUCK*     CLOUDY    46  39  78 NE14G21   30.44F
KILL DEVIL HLS CLOUDY    45  42  89 N10G22    30.39F
MANTEO         CLOUDY    46  43  90 NE18G26   30.40F
CAPE HATTERAS  CLOUDY    48  47  96 NE17G29   30.36S
GOLDSBORO      PTSUNNY   42  40  91 N9        30.40S
WASHINGTON     CLOUDY    43  38  84 N8        30.42S
GREENVILLE     MOSUNNY   41  39  93 N7        30.43R
NEW BERN       CLOUDY    46  42  86 N8        30.40S
WILMINGTON     CLOUDY    48  40  73 NE13      30.36R
$$

VAZ048-181300-
ELSEWHERE

CITY           SKY/WX    TMP DP  RH WIND       PRES   REMARKS
HARRISBURG PA  CLOUDY    38  28  67 E5        30.51F
BALTIMORE      CLOUDY    39  30  70 NE6       30.50S
ANNAPOLIS      CLOUDY    41  32  70 E5        30.51F
ANDREWS AFB    CLOUDY    39  31  73 E7        30.49S
WILMINGTON DE  CLOUDY    40  29  64 E6        30.54S
PHILADELPHIA   CLOUDY    41  28  60 E7        30.55R
WILDWOOD NJ*   CLOUDY    41  30  65 NE9       30.52F
ATLANTIC CITY  CLOUDY    40  32  73 NE10      30.52S
HENDERSON NC   PTSUNNY   38  36  92 N6        30.46R
GREENSBORO     CLOUDY    40  36  86 NE10      30.42S
ROCKY MOUNT      N/A    N/A N/A N/A MISG      30.44R
FAYETTEVILLE   SUNNY     44  38  79 N13       30.39S
CHARLOTTE      CLOUDY    46  39  76 NE9       30.40S
$$

VAZ100-181300-
MARINE

STATION/POSITION TIME  TEMP    WIND        PRES    WAVE   SWELL
                       AIR SEA DIR/SP/G            HT/PER HT/PER
                 (UTC) (F)     (DEG/KT/KT) (MB)    (FT/S) (FT/S)
44066 TX TWR #4  1200   40 44   50/ 14/ 17 1031.9R   8/ 9   7/ 9
CAPE MAY NJ      1200   41 51   50/  3/  5 1033.0F
LEWES DE         1200   42 47   60/ 12/ 14 1032.3F
15NM E FENWICK I 1200   42 45              1032.2F   8/10
OCEAN-CITY-INLET 1200   42 45   30/  9/ 12 1032.1S
WACHAPREAGUE VA  1200   41 51   10/  6/  9 1031.4R
THOMAS POINT MD  1200   40 52   60/  8/ 10 1033.4F
GOOSES REEF MD   1200   41      60/ 10/ 12 1034.1R
COVE POINT MD    1200   40      70/ 11/ 13 1032.6R
SOLOMONS ISLAND  1200      52                N/A
BISHOPS HEAD MD  1200   41 51   40/ 11/ 15 1032.1S
PINEY POINT MD   1200           60/  5/  7   N/A
POTOMAC MD       1200   41      50/ 10/ 14 1031.8R
CAMBRIDGE MD     1200   41 55   60/ 11/ 13 1032.4S
LEWISETTA VA     1200   41 53   60/  6/ 10 1032.3S
RAPPAHANNOCK LGT 1200           30/ 16/ 19 1032.2R
STINGRAY PT      1200   43      40/ 12/ 16 1031.9R
YORK RVR RNG VA  1200   43      40/ 13/ 16 1031.1S
YORKTOWN VA      1200   43 54   50/ 11/ 14 1031.7R
JAMESTOWN VA     1200   41      50/  6/ 10   N/A
DOMINION TERM VA 1200   44      60/ 11/ 13 1031.7R
KIPTOPEKE VA     1200      51   30/  6/  9   N/A
CHES BAY BRIDGE  1200   42 52   30/ 14/ 17 1031.4R
CAPE HENRY VA    1200   42      20/ 13/ 16   N/A
CHESAPEAKE LGHT  1100   44      30/ 18/ 20 1031.4R
WILLOUBY STN VA  1200   42      40/ 15/ 18 1030.7R
S CRANEY ISL VA  1200           10/ 13/ 16 1031.5S
CAPE HENRY BUOY  1200      47                N/A     6/11   3/11
1ST LANDING BUOY 1200      45                N/A     6/12   5/12
64NM E OF VA BCH 1200   47 49   10/ 19/ 21 1029.5R  10/10   8/10
DUCK PIER NC     1200   45 51   20/ 21/ 24 1028.8S
44100 DUCK FRF   1200      47                N/A     8/11   3/11
44056 DUCK FRF   1200      49                N/A     7/10   3/11
OREGON INLET NC  1200   45 50  350/ 18/ 25 1029.0S
HATTERAS NC      1200   49 55   10/ 22/ 28 1028.0S
CAPE LOOKOUT NC  1100   51      20/ 17/ 19 1027.1S
FRYING PAN SHLS  1200   57 64   50/ 23/ 27 1025.3R
$$



USA.gov is the U.S. government's official web portal to all federal, state and local government web resources and services.